カタリナ彗星

P/2015 W2 ( Catalina )

English version
Home page
Updated on March 25, 2017

---------------------------------------------------------------------

・ プロフィール

発見日 2015年11月21日
発見光度 18.8等
発見者 J. A. Johnson, G. J. Leonard (Catalina Sky Survey)

・ 写真集

・ 軌道要素

Epoch 2015 Sept. 15.0 TT = JDT 2457280.5
T 2015 Sept. 30.89321 TT                                MPCW
q   2.6783616            (2000.0)            P               Q
n   0.04975280     Peri.  117.62721     +0.60085685     -0.77800575
a   7.3213481      Node   294.24711     +0.64398041     +0.60714429
e   0.6341710      Incl.   11.61133     +0.47356128     +0.16150192
P  19.81
From 185 observations 2015 Nov. 13-2016 Feb. 2, mean residual 0".4.

・ 光度変化

        m1 = 8.8 + 5 logΔ + 20.0 log r

---------------------------------------------------------------------

軌道要素はM.P.E.C. 2016-Q04に掲載されたものです。
光度グラフはComet for Windowsで作成したものです。

---------------------------------------------------------------------

Copyright(C) Seiichi Yoshida (comet@aerith.net). All rights reserved.